Location: Boulder Knolls Observatory
(33.2250°N, 117.1147°W)
Time: 20:23:24
(UTC-08:00)

Hubble Space Telescope - Visible Passes

Search period start: 23 February 2018 00:00
Search period end: 05 March 2018 00:00
Orbit: 537 x 541 km, 28.5° (Epoch: 23 February)

Date Brightness Start Highest point End Pass type
(mag) Time Alt. Az. Time Alt. Az. Time Alt. Az.
23 Feb 3.6 03:48:18 15° ESE 03:48:18 15° ESE 03:49:09 10° ESE visible
23 Feb 1.5 05:23:39 18° WSW 05:26:22 43° S 05:30:18 10° ESE visible
24 Feb 3.9 03:38:36 12° ESE 03:38:36 12° ESE 03:38:55 10° ESE visible
24 Feb 1.5 05:13:57 23° WSW 05:16:04 42° S 05:19:59 10° ESE visible
25 Feb 1.5 05:04:15 28° SW 05:05:45 40° S 05:09:38 10° ESE visible
26 Feb 1.6 04:54:33 33° SW 04:55:26 37° S 04:59:16 10° ESE visible
27 Feb 1.7 04:44:53 33° SSW 04:45:07 34° S 04:48:52 10° SE visible
28 Feb 2.0 04:35:15 29° S 04:35:15 29° S 04:38:25 10° SE visible
01 Mar 2.5 04:25:40 22° SSE 04:25:40 22° SSE 04:27:55 10° SE visible
02 Mar 3.1 04:16:08 16° SSE 04:16:08 16° SSE 04:17:21 10° SE visible
